SCP
0 0 0 0 0 0 0 0 0 0 0 0 0 0 0 0 0 0 0 0 0 0 0 0 0 0 0 0 0 0 0 0 0 0 0 0 0 0 0 0 0 0 0 0 0
0 0 0 0 0 0 0 0 0 0 0 0 0 0 0 0 0 0 0 0 0 0 0 0 0 0 0 0 0 0 0 0 0 0 0 0 0 0 0 0 0 0 0 0 0
0 0 0 0 0 0 0 0 0 0 0 0 0 0 0 0 0 0 0 0 0 0 0 0 0 0 0 0 0 0 0 0 0 0 0 0 0 0 0 0 0 0 0 0 0
0 0 0 0 0 0 0 0 0 0 0 0 0 0 0 0 0 0 0 0 0 0 0 0 0 0 0 0 0 0 0 0 0 0 0 0 0 0 0 0 0 0 0 0 0
0 0 0 0 0 0 0 0 0 0 0 0 0 0 0 0 0 0 0 0 0 0 0 0 0 0 0 0 0 0 0 0 0 0 0 0 0 0 0 0 0 0 0 0 0
0 0 0 0 0 0 0 0 0 0 0 0 0 0 0 0 0 0 0 0 0 0 0 0 0 0 0 0 0 0 0 0 0 0 0 0 0 0 0 0 0 0 0 0 0
0 0 0 0 0 0 0 0 0 0 0 0 0 0 0 0 0 0 0 0 0 0 0 0 0 0 0 0 0 0 0 0 0 0 0 0 0 0 0 0 0 0 0 0 0
0 0 0 0 0 0 0 0 0 0 0 0 0 0 0 0 0 0 0 0 0 0 0 0 0 0 0 0 0 0 0 0 0 0 0 0 0 0 0 0 0 0 0 0 0
0 0 0 0 0 0 0 0 0 0 0 0 0 0 0 0 0 0 0 0 0 0 0 0 0 0 0 0 0 0 0 0 0 0 0 0 0 0 0 0 0 0 0 0 0
0 0 0 0 0 0 0 0 0 0 0 0 0 0 0 0 0 0 0 0 0 0 0 0 0 0 0 0 0 0 0 0 0 0 0 0 0 0 0 0 0 0 0 0 0
0 0 0 0 0 0 0 0 0 0 0 0 0 0 0 0 0 0 0 0 0 0 0 0 0 0 0 0 0 0 0 0 0 0 0 0 0 0 0 0 0 0 0 0 0
0 0 0 0 0 0 0 0 0 0 0 0 0 0 0 0 0 0 0 0 0 0 0 0 0 0 0 0 0 0 0 0 0 0 0 0 0 0 0 0 0 0 0 0 0
0 0 0 0 0 0 0 0 0 0 0 0 0 0 0 0 0 0 0 0 0 0 0 0 0 0 0 0 0 0 0 0 0 0 0 0 0 0 0 0 0 0 0 0 0
0 0 0 0 0 0 0 0 0 0 0 0 0 0 0 0 0 0 0 0 0 0 0 0 0 0 0 0 0 0 0 0 0 0 0 0 0 0 0 0 0 0 0 0 0
0 0 0 0 0 0 0 0 0 0 0 0 0 0 0 0 0 0 0 0 0 0 0 0 0 0 0 0 0 0 0 0 0 0 0 -0 0 0 -0 0 0 0 0 0 0
0 0 0 0 0 0 0 0 0 0 0 0 0 0 0 0 0 0 0 0 0 0 0 0 0 0 0 0 0 0 0 0 0 0 0 0 0 0 0 0 0 0 0 0 0
0 0 0 0 0 0 0 0 0 0 0 0 0 0 0 0 0 0 0 0 0 0 0 0 0 0 0 0 0 0 0 0 0 0 0 0 0 0 0 0 0 0 0 0 0
0 0 0 0 0 0 0 0 0 0 0 0 0 0 0 0 0 0 0 0 0 0 0 0 0 0 0 0 0 0 0 0 0 0 0 0 0 0 -0 0 0 0 0 0 0
0 0 0 0 0 0 0 0 0 0 0 0 0 0 0 0 0 0 0 0 0 0 0 0 0 0 0 0 0 0 0 0 0 0 0 0 0 0 0 0 0 0 0 0 0
0 0 0 0 0 0 0 0 0 0 0 0 0 0 0 0 0 0 0 0 0 0 0 0 0 0 0 0 0 0 0 0 0 0 0 0 0 0 0 0 0 0 0 0 0
0 0 0 0 0 0 0 0 0 0 0 0 0 0 0 0 0 0 0 0 0 0 0 0 0 0 0 0 0 0 0 0 0 0 0 0 0 0 0 0 0 0 0 0 0
0 0 0 0 0 0 0 0 0 0 0 0 0 0 0 0 0 0 0 0 0 0 0 0 0 0 0 0 0 0 0 0 0 0 0 0 0 0 0 0 0 -0 -0 0 0
0 0 0 0 0 0 0 0 0 0 0 0 0 0 0 0 0 0 0 0 0 0 0 0 0 0 0 0 0 0 0 0 0 0 0 0 0 0 0 0 0 -0 -0 0 0
0 0 0 0 0 0 0 0 0 0 0 0 0 0 0 0 0 0 0 0 0 0 0 0 0 0 0 0 0 0 0 0 0 0 0 0 0 0 0 0 -0 -0 -0 -0 -0
0 0 0 0 0 0 0 0 0 0 0 0 0 0 0 0 0 0 0 0 0 0 0 0 0 0 0 0 0 0 0 0 0 0 0 0 0 0 0 0 -0 -0 0 0 -0
0 0 0 0 0 0 0 0 0 0 -0 0 0 0 0 0 0 0 0 0 0 0 0 0 0 0 0 0 0 0 0 0 0 0 0 0 0 0 0 0 -0 -0 0 0 0
0 0 0 0 0 0 0 0 0 0 0 0 0 0 0 0 0 0 0 0 0 0 0 0 0 0 0 0 0 0 0 0 0 0 0 0 0 0 0 0 0 0 0 0 0
Wind_Speed_500mb
52 53 49 43 36 32 32 34 38 50 52 47 42 43 39 41 41 38 34 25 17 25 24 19 10 13 7 7 6 5 6 4 7 5 8 13 7 9 8 9 2 2 5 12 21
57 50 56 49 43 37 32 33 34 36 50 48 45 40 42 37 37 44 43 34 27 32 23 12 8 7 5 6 6 9 7 11 11 11 10 9 1 11 3 7 5 13 15 16 23
68 59 47 55 50 44 37 32 32 30 34 46 44 41 34 38 41 52 51 43 38 38 27 20 13 4 5 12 8 9 9 11 37 41 21 7 12 11 9 3 11 4 19 31 31
63 68 57 48 55 50 42 36 33 28 25 37 39 39 32 30 15 8 29 36 36 35 34 18 15 6 4 5 12 8 21 24 37 48 27 10 13 16 10 18 16 21 19 18 36
73 67 67 57 48 54 48 39 34 34 28 31 31 37 37 32 36 12 15 21 27 33 35 31 26 16 9 9 12 13 17 31 39 47 35 27 13 16 29 36 31 31 20 22 29
61 69 67 66 57 50 53 44 39 35 32 28 31 37 43 42 37 43 22 8 19 32 36 30 14 25 10 12 13 12 9 12 14 28 29 23 18 11 15 30 30 30 28 33 38
71 65 67 65 64 54 51 50 42 37 33 29 33 38 47 46 13 38 36 29 24 15 26 28 36 18 8 2 6 5 7 12 8 16 12 23 21 13 40 45 56 54 41 34 41
75 68 65 63 61 61 51 52 47 42 35 30 34 35 25 39 50 27 29 31 27 24 31 32 27 22 6 4 6 7 5 4 6 19 24 13 37 12 20 35 46 58 63 63 59
76 78 67 67 58 60 56 50 50 43 36 30 37 31 20 37 40 42 21 33 27 25 30 24 26 14 7 5 4 2 13 8 12 30 15 16 41 18 38 48 49 46 53 66 67
82 81 75 66 58 58 55 47 46 39 34 29 24 17 37 21 40 52 36 34 30 27 17 21 14 7 10 13 27 12 10 9 18 4 10 20 43 20 48 47 62 67 64 58 64
80 82 75 70 69 54 57 48 32 23 56 22 36 33 18 45 35 42 51 38 29 30 15 24 8 27 28 20 25 4 6 16 12 11 28 26 36 25 42 46 52 64 69 80 80
74 75 77 69 59 63 62 64 53 26 21 58 12 66 17 34 25 36 53 37 23 20 23 8 28 16 9 15 19 22 23 28 18 13 12 20 34 34 37 43 52 62 67 69 81
79 69 70 70 64 60 70 79 49 45 11 43 49 33 65 16 27 51 57 40 16 19 25 22 10 28 13 17 15 23 31 25 15 8 20 19 31 32 31 53 62 76 79 79 84
74 73 68 66 60 66 77 72 56 46 10 12 35 21 40 14 18 38 60 44 12 30 13 16 33 13 21 27 23 29 14 14 18 11 12 15 13 31 17 33 41 58 66 80 83
70 71 71 74 51 84 66 70 65 28 21 35 29 23 40 38 25 36 57 49 20 15 16 24 21 25 24 27 14 20 14 19 18 17 16 13 11 19 7 19 30 30 43 56 72
72 72 76 73 70 72 61 70 65 18 18 16 34 33 35 49 10 43 45 42 19 8 6 31 14 20 22 27 23 10 3 8 4 3 19 32 20 23 20 29 24 30 56 70 70
82 74 80 81 86 59 74 59 21 12 19 22 25 46 55 29 33 17 29 30 21 21 29 13 24 6 7 11 11 10 10 8 9 10 10 17 13 31 31 40 24 39 53 64 65
76 82 81 85 80 64 76 23 35 19 10 6 22 47 44 35 31 24 34 34 35 10 13 24 9 31 13 20 13 15 21 13 15 10 8 4 13 16 35 54 60 71 80 66 80
84 77 85 85 84 80 60 33 30 10 20 15 33 47 28 35 21 27 40 43 29 32 18 16 17 10 16 13 19 9 14 24 24 20 7 10 12 28 28 32 33 40 43 45 51
73 66 67 81 78 83 29 26 16 4 14 22 18 27 24 44 26 35 36 33 11 35 12 7 4 15 17 15 26 31 12 6 7 9 22 13 13 18 17 8 14 17 16 36 53
70 30 49 72 77 64 22 14 8 25 15 33 20 16 13 38 37 39 25 12 31 37 23 8 5 7 18 17 22 9 22 13 6 9 7 11 11 18 18 10 12 21 49 62 44
46 7 42 83 16 10 22 11 13 15 27 24 10 7 29 45 39 36 32 22 50 45 37 11 7 7 12 7 12 33 35 30 17 14 7 5 22 7 23 28 41 29 55 44 56
39 12 56 85 17 11 12 12 7 10 14 7 16 13 18 30 19 26 31 39 38 32 30 19 8 5 13 11 5 10 11 16 11 9 33 18 24 3 21 19 43 41 47 62 67
21 6 20 50 20 10 15 17 12 23 16 20 13 10 25 32 6 25 26 24 42 38 36 46 9 17 21 10 11 10 11 12 16 14 35 30 49 56 31 15 26 50 60 76 83
13 6 9 25 21 21 10 28 37 14 14 40 15 37 32 18 15 18 21 10 18 39 25 22 13 12 3 12 5 8 11 19 28 34 18 38 29 50 27 16 37 57 69 72 61
13 10 11 20 30 27 29 19 33 9 23 15 19 43 35 31 27 31 30 18 23 10 25 6 6 6 2 6 10 17 21 14 13 11 19 18 35 37 47 48 38 43 25 33 49
12 21 9 29 11 12 20 11 44 29 17 12 38 26 30 35 29 45 36 30 21 29 15 16 12 7 8 6 2 15 13 26 23 15 17 21 45 43 22 23 33 37 44 43 53
Wind_Direction_500mb
239 238 239 238 239 239 241 235 233 230 230 232 233 231 230 235 251 252 243 235 249 258 264 271 313 32 356 292 268 301 50 260 257 286 308 187 144 168 146 125 198 236 207 205 187
242 240 238 237 236 236 236 235 237 233 227 229 231 235 233 236 248 246 243 235 230 247 254 287 273 336 270 263 245 161 141 226 251 307 333 255 5 163 141 172 208 244 239 225 198
239 239 238 234 234 234 232 234 232 237 232 225 227 230 233 238 250 261 247 238 237 243 253 251 252 273 285 257 244 194 190 267 289 303 345 15 346 338 176 203 216 244 249 235 219
238 235 237 237 231 231 231 227 230 228 232 224 225 224 225 224 222 270 244 241 243 241 235 228 214 190 227 230 261 256 254 272 285 295 330 313 315 325 290 254 278 333 324 250 235
239 235 233 234 233 228 227 224 224 227 226 219 221 210 212 212 218 93 133 193 219 216 219 211 203 203 192 224 282 254 259 260 276 272 302 303 272 274 274 277 277 283 280 252 238
242 239 237 233 230 227 224 221 220 221 220 213 211 205 214 231 232 226 245 253 215 215 201 199 201 213 283 221 226 305 334 311 296 305 307 291 281 284 279 285 283 265 266 257 243
238 238 233 230 227 226 221 216 215 215 215 213 206 210 222 225 218 228 233 238 250 195 201 214 218 210 212 245 315 330 345 339 280 293 288 291 283 239 271 271 266 259 261 248 247
238 235 232 229 225 222 222 213 210 210 211 210 202 212 236 238 218 201 211 217 213 186 199 202 208 213 177 167 23 49 47 276 196 240 259 239 262 253 260 272 269 265 255 255 251
239 233 231 227 223 216 217 212 205 203 203 201 199 206 236 217 218 196 176 212 211 205 202 212 212 220 188 114 297 149 254 237 283 243 258 202 269 266 257 258 269 269 266 256 255
231 225 226 224 219 211 210 207 202 192 191 192 198 197 241 205 219 210 202 197 197 199 185 190 177 179 194 187 223 206 215 234 244 279 269 265 270 259 259 257 271 277 274 273 259
226 222 220 218 216 207 199 188 173 180 190 179 188 194 343 214 198 211 196 198 198 200 181 183 180 216 210 208 243 315 221 250 257 289 262 263 279 294 282 265 260 266 268 268 264
219 217 216 212 208 205 202 197 199 191 178 204 221 208 95 165 182 200 193 188 186 200 187 182 225 212 154 176 208 228 235 254 275 268 336 324 297 290 281 268 259 264 268 269 267
215 212 208 207 205 200 204 205 198 185 158 202 211 216 211 222 211 197 192 190 184 198 188 213 227 194 209 224 214 231 235 243 242 321 294 302 293 278 268 256 263 263 266 263 262
213 214 209 202 200 200 208 205 186 179 192 175 201 233 212 210 222 215 198 185 199 202 175 217 235 214 210 230 208 243 200 210 221 222 263 168 286 274 277 276 275 276 263 260 261
210 211 210 201 193 199 203 198 195 160 224 168 175 184 191 181 147 190 196 193 186 180 169 217 172 197 217 226 170 251 188 228 232 247 256 235 255 283 219 271 268 276 279 275 271
213 210 209 202 204 205 192 195 189 195 222 168 158 171 159 196 197 164 185 201 214 200 239 226 187 176 201 222 202 217 185 238 200 195 239 237 209 262 259 251 263 262 269 281 276
205 207 200 197 196 195 189 174 196 228 152 152 176 173 176 175 194 167 171 183 183 192 214 220 233 273 196 177 186 170 155 251 234 212 256 234 202 242 266 254 259 274 269 274 277
202 200 198 200 195 184 181 187 218 190 192 236 164 174 182 154 197 173 172 194 208 197 177 214 225 202 190 195 174 189 195 220 242 222 269 17 207 245 229 269 265 263 272 273 274
182 184 193 194 194 185 175 206 208 163 147 148 151 176 178 174 149 171 196 202 200 198 172 185 237 197 184 174 150 206 198 233 256 263 287 235 261 288 269 264 256 282 289 282 282
173 176 192 188 189 186 199 194 153 209 133 155 164 181 169 175 167 184 187 199 209 197 194 178 206 206 202 170 208 208 149 227 200 243 250 233 224 232 251 275 311 301 345 348 345
157 151 177 186 181 187 205 197 174 155 160 186 175 174 199 168 182 185 191 186 184 186 179 170 125 275 137 199 187 197 224 220 206 191 255 249 244 225 252 309 320 328 331 336 321
150 138 186 180 179 173 200 168 192 148 207 226 197 125 174 176 183 184 208 196 191 168 198 172 129 205 230 220 187 207 214 212 223 234 239 304 270 237 288 295 314 339 336 330 343
143 119 174 179 191 163 144 161 195 153 187 225 202 179 165 166 166 188 190 202 185 178 179 170 211 80 340 324 244 210 195 196 212 243 248 247 260 185 280 319 319 333 329 321 320
142 137 166 183 208 137 156 176 185 217 210 202 256 151 130 162 152 180 175 177 194 179 170 168 171 202 216 205 173 198 183 204 205 230 248 240 262 276 277 308 318 320 309 303 310
169 158 219 171 193 194 179 176 187 179 198 192 277 172 169 155 155 165 159 145 158 179 167 168 193 196 190 302 112 200 227 222 217 239 235 264 258 270 288 293 293 288 290 293 316
142 106 341 139 137 177 179 189 183 163 176 185 237 170 166 167 181 169 167 156 168 135 175 178 165 123 35 197 259 275 257 207 228 242 254 272 269 274 283 279 282 289 19 31 356
165 182 353 158 161 170 192 180 206 182 230 198 214 171 189 192 169 174 152 149 168 168 151 150 125 115 242 242 91 298 223 226 239 215 228 245 258 280 357 359 26 39 32 10 357
Wind_Speed_850mb
52 53 49 43 36 32 32 34 38 50 52 47 42 43 39 41 41 38 34 25 17 25 24 19 10 13 7 7 6 5 6 4 7 5 8 13 7 9 8 9 2 2 5 12 21
57 50 56 49 43 37 32 33 34 36 50 48 45 40 42 37 37 44 43 34 27 32 23 12 8 7 5 6 6 9 7 11 11 11 10 9 1 11 3 7 5 13 15 16 23
68 59 47 55 50 44 37 32 32 30 34 46 44 41 34 38 41 52 51 43 38 38 27 20 13 4 5 12 8 9 9 11 37 41 21 7 12 11 9 3 11 4 19 31 31
63 68 57 48 55 50 42 36 33 28 25 37 39 39 32 30 15 8 29 36 36 35 34 18 15 6 4 5 12 8 21 24 37 48 27 10 13 16 10 18 16 21 19 18 36
73 67 67 57 48 54 48 39 34 34 28 31 31 37 37 32 36 12 15 21 27 33 35 31 26 16 9 9 12 13 17 31 39 47 35 27 13 16 29 36 31 31 20 22 29
61 69 67 66 57 50 53 44 39 35 32 28 31 37 43 42 37 43 22 8 19 32 36 30 14 25 10 12 13 12 9 12 14 28 29 23 18 11 15 30 30 30 28 33 38
71 65 67 65 64 54 51 50 42 37 33 29 33 38 47 46 13 38 36 29 24 15 26 28 36 18 8 2 6 5 7 12 8 16 12 23 21 13 40 45 56 54 41 34 41
75 68 65 63 61 61 51 52 47 42 35 30 34 35 25 39 50 27 29 31 27 24 31 32 27 22 6 4 6 7 5 4 6 19 24 13 37 12 20 35 46 58 63 63 59
76 78 67 67 58 60 56 50 50 43 36 30 37 31 20 37 40 42 21 33 27 25 30 24 26 14 7 5 4 2 13 8 12 30 15 16 41 18 38 48 49 46 53 66 67
82 81 75 66 58 58 55 47 46 39 34 29 24 17 37 21 40 52 36 34 30 27 17 21 14 7 10 13 27 12 10 9 18 4 10 20 43 20 48 47 62 67 64 58 64
80 82 75 70 69 54 57 48 32 23 56 22 36 33 18 45 35 42 51 38 29 30 15 24 8 27 28 20 25 4 6 16 12 11 28 26 36 25 42 46 52 64 69 80 80
74 75 77 69 59 63 62 64 53 26 21 58 12 66 17 34 25 36 53 37 23 20 23 8 28 16 9 15 19 22 23 28 18 13 12 20 34 34 37 43 52 62 67 69 81
79 69 70 70 64 60 70 79 49 45 11 43 49 33 65 16 27 51 57 40 16 19 25 22 10 28 13 17 15 23 31 25 15 8 20 19 31 32 31 53 62 76 79 79 84
74 73 68 66 60 66 77 72 56 46 10 12 35 21 40 14 18 38 60 44 12 30 13 16 33 13 21 27 23 29 14 14 18 11 12 15 13 31 17 33 41 58 66 80 83
70 71 71 74 51 84 66 70 65 28 21 35 29 23 40 38 25 36 57 49 20 15 16 24 21 25 24 27 14 20 14 19 18 17 16 13 11 19 7 19 30 30 43 56 72
72 72 76 73 70 72 61 70 65 18 18 16 34 33 35 49 10 43 45 42 19 8 6 31 14 20 22 27 23 10 3 8 4 3 19 32 20 23 20 29 24 30 56 70 70
82 74 80 81 86 59 74 59 21 12 19 22 25 46 55 29 33 17 29 30 21 21 29 13 24 6 7 11 11 10 10 8 9 10 10 17 13 31 31 40 24 39 53 64 65
76 82 81 85 80 64 76 23 35 19 10 6 22 47 44 35 31 24 34 34 35 10 13 24 9 31 13 20 13 15 21 13 15 10 8 4 13 16 35 54 60 71 80 66 80
84 77 85 85 84 80 60 33 30 10 20 15 33 47 28 35 21 27 40 43 29 32 18 16 17 10 16 13 19 9 14 24 24 20 7 10 12 28 28 32 33 40 43 45 51
73 66 67 81 78 83 29 26 16 4 14 22 18 27 24 44 26 35 36 33 11 35 12 7 4 15 17 15 26 31 12 6 7 9 22 13 13 18 17 8 14 17 16 36 53
70 30 49 72 77 64 22 14 8 25 15 33 20 16 13 38 37 39 25 12 31 37 23 8 5 7 18 17 22 9 22 13 6 9 7 11 11 18 18 10 12 21 49 62 44
46 7 42 83 16 10 22 11 13 15 27 24 10 7 29 45 39 36 32 22 50 45 37 11 7 7 12 7 12 33 35 30 17 14 7 5 22 7 23 28 41 29 55 44 56
39 12 56 85 17 11 12 12 7 10 14 7 16 13 18 30 19 26 31 39 38 32 30 19 8 5 13 11 5 10 11 16 11 9 33 18 24 3 21 19 43 41 47 62 67
21 6 20 50 20 10 15 17 12 23 16 20 13 10 25 32 6 25 26 24 42 38 36 46 9 17 21 10 11 10 11 12 16 14 35 30 49 56 31 15 26 50 60 76 83
13 6 9 25 21 21 10 28 37 14 14 40 15 37 32 18 15 18 21 10 18 39 25 22 13 12 3 12 5 8 11 19 28 34 18 38 29 50 27 16 37 57 69 72 61
13 10 11 20 30 27 29 19 33 9 23 15 19 43 35 31 27 31 30 18 23 10 25 6 6 6 2 6 10 17 21 14 13 11 19 18 35 37 47 48 38 43 25 33 49
12 21 9 29 11 12 20 11 44 29 17 12 38 26 30 35 29 45 36 30 21 29 15 16 12 7 8 6 2 15 13 26 23 15 17 21 45 43 22 23 33 37 44 43 53
Wind_Direction_850mb
239 238 239 238 239 239 241 235 233 230 230 232 233 231 230 235 251 252 243 235 249 258 264 271 313 32 356 292 268 301 50 260 257 286 308 187 144 168 146 125 198 236 207 205 187
242 240 238 237 236 236 236 235 237 233 227 229 231 235 233 236 248 246 243 235 230 247 254 287 273 336 270 263 245 161 141 226 251 307 333 255 5 163 141 172 208 244 239 225 198
239 239 238 234 234 234 232 234 232 237 232 225 227 230 233 238 250 261 247 238 237 243 253 251 252 273 285 257 244 194 190 267 289 303 345 15 346 338 176 203 216 244 249 235 219
238 235 237 237 231 231 231 227 230 228 232 224 225 224 225 224 222 270 244 241 243 241 235 228 214 190 227 230 261 256 254 272 285 295 330 313 315 325 290 254 278 333 324 250 235
239 235 233 234 233 228 227 224 224 227 226 219 221 210 212 212 218 93 133 193 219 216 219 211 203 203 192 224 282 254 259 260 276 272 302 303 272 274 274 277 277 283 280 252 238
242 239 237 233 230 227 224 221 220 221 220 213 211 205 214 231 232 226 245 253 215 215 201 199 201 213 283 221 226 305 334 311 296 305 307 291 281 284 279 285 283 265 266 257 243
238 238 233 230 227 226 221 216 215 215 215 213 206 210 222 225 218 228 233 238 250 195 201 214 218 210 212 245 315 330 345 339 280 293 288 291 283 239 271 271 266 259 261 248 247
238 235 232 229 225 222 222 213 210 210 211 210 202 212 236 238 218 201 211 217 213 186 199 202 208 213 177 167 23 49 47 276 196 240 259 239 262 253 260 272 269 265 255 255 251
239 233 231 227 223 216 217 212 205 203 203 201 199 206 236 217 218 196 176 212 211 205 202 212 212 220 188 114 297 149 254 237 283 243 258 202 269 266 257 258 269 269 266 256 255
231 225 226 224 219 211 210 207 202 192 191 192 198 197 241 205 219 210 202 197 197 199 185 190 177 179 194 187 223 206 215 234 244 279 269 265 270 259 259 257 271 277 274 273 259
226 222 220 218 216 207 199 188 173 180 190 179 188 194 343 214 198 211 196 198 198 200 181 183 180 216 210 208 243 315 221 250 257 289 262 263 279 294 282 265 260 266 268 268 264
219 217 216 212 208 205 202 197 199 191 178 204 221 208 95 165 182 200 193 188 186 200 187 182 225 212 154 176 208 228 235 254 275 268 336 324 297 290 281 268 259 264 268 269 267
215 212 208 207 205 200 204 205 198 185 158 202 211 216 211 222 211 197 192 190 184 198 188 213 227 194 209 224 214 231 235 243 242 321 294 302 293 278 268 256 263 263 266 263 262
213 214 209 202 200 200 208 205 186 179 192 175 201 233 212 210 222 215 198 185 199 202 175 217 235 214 210 230 208 243 200 210 221 222 263 168 286 274 277 276 275 276 263 260 261
210 211 210 201 193 199 203 198 195 160 224 168 175 184 191 181 147 190 196 193 186 180 169 217 172 197 217 226 170 251 188 228 232 247 256 235 255 283 219 271 268 276 279 275 271
213 210 209 202 204 205 192 195 189 195 222 168 158 171 159 196 197 164 185 201 214 200 239 226 187 176 201 222 202 217 185 238 200 195 239 237 209 262 259 251 263 262 269 281 276
205 207 200 197 196 195 189 174 196 228 152 152 176 173 176 175 194 167 171 183 183 192 214 220 233 273 196 177 186 170 155 251 234 212 256 234 202 242 266 254 259 274 269 274 277
202 200 198 200 195 184 181 187 218 190 192 236 164 174 182 154 197 173 172 194 208 197 177 214 225 202 190 195 174 189 195 220 242 222 269 17 207 245 229 269 265 263 272 273 274
182 184 193 194 194 185 175 206 208 163 147 148 151 176 178 174 149 171 196 202 200 198 172 185 237 197 184 174 150 206 198 233 256 263 287 235 261 288 269 264 256 282 289 282 282
173 176 192 188 189 186 199 194 153 209 133 155 164 181 169 175 167 184 187 199 209 197 194 178 206 206 202 170 208 208 149 227 200 243 250 233 224 232 251 275 311 301 345 348 345
157 151 177 186 181 187 205 197 174 155 160 186 175 174 199 168 182 185 191 186 184 186 179 170 125 275 137 199 187 197 224 220 206 191 255 249 244 225 252 309 320 328 331 336 321
150 138 186 180 179 173 200 168 192 148 207 226 197 125 174 176 183 184 208 196 191 168 198 172 129 205 230 220 187 207 214 212 223 234 239 304 270 237 288 295 314 339 336 330 343
143 119 174 179 191 163 144 161 195 153 187 225 202 179 165 166 166 188 190 202 185 178 179 170 211 80 340 324 244 210 195 196 212 243 248 247 260 185 280 319 319 333 329 321 320
142 137 166 183 208 137 156 176 185 217 210 202 256 151 130 162 152 180 175 177 194 179 170 168 171 202 216 205 173 198 183 204 205 230 248 240 262 276 277 308 318 320 309 303 310
169 158 219 171 193 194 179 176 187 179 198 192 277 172 169 155 155 165 159 145 158 179 167 168 193 196 190 302 112 200 227 222 217 239 235 264 258 270 288 293 293 288 290 293 316
142 106 341 139 137 177 179 189 183 163 176 185 237 170 166 167 181 169 167 156 168 135 175 178 165 123 35 197 259 275 257 207 228 242 254 272 269 274 283 279 282 289 19 31 356
165 182 353 158 161 170 192 180 206 182 230 198 214 171 189 192 169 174 152 149 168 168 151 150 125 115 242 242 91 298 223 226 239 215 228 245 258 280 357 359 26 39 32 10 357